Regional Weather Roundup
Issued by NWS Sioux Falls, SD

Home | Current Version | Previous Version | Text Only | Print | Product List | Glossary On
Versions: 1 2 3 4 5 6 7 8 9 10 11 12 13 14 15 16 17 18 19 20 21 22 23 24 25 26 27 28 29 30 31 32 33 34 35 36 37 38 39 40 41 42 43 44 45 46 47 48 49 50
653
ASUS43 KFSD 010202
RWRFSD

WEATHER ROUNDUP FOR SE SOUTH DAKOTA/SW MINNESOTA/NW IOWA
NATIONAL WEATHER SERVICE SIOUX FALLS SD
900 PM CDT FRI SEP 30 2016

NOTE: "FAIR" INDICATES FEW OR NO CLOUDS BELOW 12,000 FEET WITH NO
SIGNIFICANT WEATHER AND OR OBSTRUCTIONS TO VISIBILITY.


SDZ038>040-050-052>070-010300-
SOUTHEAST SOUTH DAKOTA

CITY           SKY/WX    TMP DP  RH WIND       PRES   REMARKS
CHAMBERLAIN    MOCLDY    58  46  64 SE7       30.12S
HURON          PTCLDY    59  46  62 SE8       30.14S
MADISON        FAIR      55  45  67 SE5       30.18S
MITCHELL       PTCLDY    59  46  62 SE7       30.14F
SIOUX FALLS    CLOUDY    56  48  74 CALM      30.17S
WINNER         FAIR      62  48  60 SE10      30.10F
YANKTON        PTCLDY    63  46  55 E3        30.14R
$$

MNZ071-072-080-081-089-090-097-098-010300-
SOUTHWEST MINNESOTA

CITY           SKY/WX    TMP DP  RH WIND       PRES   REMARKS
FAIRMONT       CLOUDY    64  53  67 NE6       30.19F
JACKSON        CLOUDY    63  50  63 E6        30.20S
LUVERNE        CLOUDY    54  43  66 CALM      30.19S
MARSHALL       CLEAR     56  47  71 SE5       30.20R
MONTEVIDEO     CLEAR     55  45  67 SE7       30.22S
PIPESTONE      CLOUDY    55  45  67 E3        30.19S
REDWOOD FALLS  CLEAR     61  48  62 E7        30.20S
TRACY          CLEAR     55  49  81 CALM      30.20S
WINDOM         CLEAR     57  50  77 NE3       30.20S
WORTHINGTON    CLEAR     56  49  77 E6        30.20S
$$

IAZ001>003-012>014-020>022-031-032-NEZ013-014-SDZ071-010300-
NORTHWEST IOWA

CITY           SKY/WX    TMP DP  RH WIND       PRES   REMARKS
CHEROKEE       PTCLDY    59  53  83 E5        30.17R
DENISON        MOCLDY    59  54  82 CALM      30.15R
ESTHERVILLE    CLOUDY    63  54  72 NE6       30.18F
LE MARS        CLEAR     54  50  87 CALM      30.17S
SHELDON        PTCLDY    54  50  87 NE3       30.16S
SIOUX CITY     PTCLDY    62  49  62 E6        30.15S
SPENCER        CLEAR     59  52  77 NE6       30.18S
STORM LAKE     PTCLDY    61  54  77 E7        30.18R
$$

ABBREVIATIONS USED IN REMARKS
   TC - TEMPERATURE IN CELSIUS
  WCI - WIND CHILL INDEX
   HX - HEAT INDEX
  VSB - VISIBILITY





USA.gov is the U.S. government's official web portal to all federal, state and local government web resources and services.